カタログに戻る

KUIPER-00592

運用中通信LEO
NORAD 69277·PAYLOAD·🇺🇸 United States

打ち上げ May 29, 2026 から Vandenberg Space Force Base

Loading…

次のパス (今後24時間)

TLE

最新Source: CelesTrak SupGP

元期: Sep 14, 2026, 18:33 UTC

1 69277C 26118L   26257.77298611  .00004398  00000+0  57593-3 0  2574
2 69277  51.9040   4.4080 0000498 102.9846 104.9159 14.79910538    16

AllMySatでKUIPER-00592をリアルタイム追跡

Download on the App Store